Regional Weather Roundup
Issued by NWS Midland/Odessa, TX

Home | Current Version | Previous Version | Text Only | Print | Product List | Glossary On
Versions: 1 2 3 4 5 6 7 8 9 10 11 12 13 14 15 16 17 18 19 20 21 22 23 24 25 26 27 28 29 30 31 32 33 34 35 36 37 38 39 40 41 42 43 44 45 46 47 48 49 50
000
ASUS44 KMAF 212301
RWRMAF
MIDLAND AREA WEATHER ROUNDUP
NATIONAL WEATHER SERVICE MIDLAND TX
500 PM CST SAT JAN 21 2017

...IN SOUTHWEST TEXAS AND SOUTHEAST NEW MEXICO...

CITY           SKY/WX    TMP DP  RH WIND       PRES   REMARKS
ALPINE         PTSUNNY   42  41  97 W18G31    29.73R WCI  33
ANDREWS        FAIR      56  24  29 W26G44    29.50R
ARTESIA        MOSUNNY   48  25  40 W45G59    29.50S WCI  38
BIG SPRING     PTSUNNY   59  32  36 SW25G40   29.51S
CARLSBAD       SUNNY     55  25  31 W44G53    29.50F
DRYDEN           N/A     56  42  59 NW24G37   29.61R
FORT STOCKTON  MOSUNNY   50  39  66 W16G26    29.64R
GUAD PASS      PTSUNNY   41  29  62 W43G62    29.55R WCI  28
HOBBS          NOT AVBL
MARFA          CLOUDY    40  37  89 W22       29.73R WCI  30
MIDLAND AIRPK  MOSUNNY   60  25  26 W29G39    29.52R
MIDLAND INTL   PTSUNNY   58  28  32 W28G47    29.52R
ODESSA         CLOUDY    56  24  29 W28G45    29.52S
PECOS          CLOUDY    54  31  42 W29G38    29.62R
PRESIDIO       FAIR      55  41  58 W13       29.69R
SEMINOLE       RAIN      52  32  46 W29G37    29.49R
SNYDER         CLOUDY    60  30  32 SW30G41   29.45R
WINK           MOSUNNY   55  28  35 W35G44    29.56R
$$
...OTHER STATIONS IN TEXAS...

CITY           SKY/WX    TMP DP  RH WIND       PRES   REMARKS
ABILENE        CLOUDY    61  34  36 SW16      29.43S
AMARILLO       CLOUDY    49  40  71 SW7       29.32F
AUSTIN         PTSUNNY   79  35  20 W6        29.43R
BROWNSVILLE    SUNNY     87  59  38 S17       29.45S
CORPUS CHRISTI MOSUNNY   91  35  13 W12       29.40F
DALLAS FTW     CLOUDY    68  56  65 S9        29.39R
DEL RIO        PTSUNNY   70  40  33 NW18G33   29.52R
EL PASO        MOSUNNY   49  24  37 W37G59    29.67R WCI  40
HOUSTON INT    PTCLDY    76  54  46 W7        29.44R
LUBBOCK        PTSUNNY   53  31  42 W25G36    29.39R
SAN ANGELO     LGT RAIN  59  36  42 W33G43    29.54R
SAN ANTONIO    PTSUNNY   78  39  24 NW8       29.42S
WACO           CLOUDY    65  57  75 S6        29.42S
WICHITA FALLS  NOT AVBL
$$
...OTHER LOCATIONS IN NEW MEXICO...

CITY           SKY/WX    TMP DP  RH WIND       PRES   REMARKS
ALAMAGORDO     MOSUNNY   46  27  46 W24G38    29.64R WCI  38
ALBUQUERQUE    MOSUNNY   41  19  41 W21G32    29.55R WCI  32
CANNON AFB     PTSUNNY   51  26  39 W24G33    29.36R
CLOVIS         SUNNY     52  21  30 W37G45    29.35R
HOLLOMAN AFB   NOT AVBL
ROSWELL        PTSUNNY   49  30  48 W22G29    29.51R
RUIDOSO        CLOUDY    32  21  64 NW14G28   29.53S WCI  22
SANTA FE       MIX PCPN  36  23  59 W20G28    29.49R WCI  25
TRUTH OR CONSE MOSUNNY   45  19  35 W25G39    29.63R WCI  36
TUCUMCARI      MOSUNNY   51  26  37 W24G36    29.30R
$$




USA.gov is the U.S. government's official web portal to all federal, state and local government web resources and services.